13:15
Airports
History
Links
Donate
Help keep this website running!
PayPal
Bitcoin
This page is community maintained. The information is intended for PC simulator navigation or reference.
Always use approved charts for navigation.
UHMA
UGOLNY
UGOLNY (UHMA)
Anadyr, Chukotka Autonomous Okrug, Russian Federation (689501)
(C)
Lat/Lng:64° 44' 5.82" N / 177° 44' 29.34" E
64.73495 / 177.741484
Elevation:194'ft / 59mMSL
ID / ICAO:UHMA
Runways:1
Longest:01-19
Concrete 3,476m / 11,405ft
Controlled:Yes
METAR13:00 GMT 2018-01-17
Altimeter: 29.85
Visibility: 6.2 statute miles
Wind: 13.6 knots (from 340°)
Temp: -26°c / -15°f
Humidity: 62.5%

METAR: UHMA 171300Z 34007MPS 9999 FEW013 SCT080 M26/M31 Q1011 RMK END R01/32006MPS QFE755/1006

(Powered by phpweather)
Airport Radio Frequencies
Tower: 124
Approach: 124
Nearby VORs <50NM
Nearby NDBs
Runway 01 / 19
Dimensions:3476.2 x 60.1m 11405' x 197'ft
Surface:Concrete
Edge Lights:Low intensity
Runway 01 [A]Runway 19 [B]
Heading:014°TH 194°TH
Lat:
Lng:
64° 43' 11.23"N
177° 43' 55.89"E
64° 45' 0.41"N
177° 45' 2.79"E
ALS:ALSF-IICalvert
TDZ:Yes
User Notes and Comments
64° 44' 5.82" N / 177° 44' 29.34" E
Distance To
Airport ID:
Nearby Airports
(C) Provideniya Bay 268.7 NM
UHMD E 95°
(U) Gambell 322.5 NM
PAGM ( WX ) E 101°
4 Savoonga 360.4 NM
PASA ( WX ) E 101°
(U) PEVEK 397.0 NM
UHMP NNW 331°
(U) Ust Pakhachi 397.0 NM
UHPA SW 223°
4 Wales 414.4 NM
PAIW E 81°
(R) Tin City Lrrs 419.2 NM
PATC ( WX ) E 82°
VFR Chart
Flight Planning at SkyVector.com